This demonstration page uses our WeatherBlox Daily Observations layout. Learn more.

Left ArrowRight Arrow

38.20091, -84.87328

Hourly Observations for August 12, 2016

Temp ( °F °C ) Dew Point ( °F °C ) Humidity (%) Winds ( mph kmh ) Pressure ( in mb ) Visibility ( mi km ) Precip ( " mm )
12:53 am 00:53 Clear 79 26.1 72 22.2 79 79 SSE 3 6 29.94 1014 10 16 0.00 0.00
1:53 am 01:53 Clear 77 25 72 22.2 85 85 Calm 29.96 1015 10 16 0.00 0.00
2:53 am 02:53 Clear 76 24.4 72 22.2 88 88 Calm 29.96 1015 10 16 0.00 0.00
3:53 am 03:53 Cloudy 76 24.4 72 22.2 88 88 Calm 29.96 1015 10 16 0.00 0.00
4:53 am 04:53 Cloudy 78 25.6 72 22.2 82 82 S 3 6 29.96 1015 10 16 0.00 0.00
5:53 am 05:53 Cloudy 79 26.1 71 21.7 77 77 S 6 9 29.95 1014 10 16 0.00 0.00
6:53 am 06:53 Cloudy 78 25.6 70 21.1 76 76 S 8 13 29.96 1014 10 16 0.00 0.00
7:53 am 07:53 Mostly Cloudy 79 26.1 71 21.7 77 77 SSW 7 11 29.96 1015 10 16 0.00 0.00
8:53 am 08:53 Mostly Sunny 81 27.2 71 21.7 72 72 S 6 9 29.96 1015 10 16 0.00 0.00
9:53 am 09:53 Sunny 84 28.9 72 22.2 67 67 SSW 8 13 29.95 1014 10 16 0.00 0.00
10:53 am 10:53 Sunny 86 30 73 22.8 65 65 SSW 13 20 29.94 1014 10 16 0.00 0.00
11:53 am 11:53 Partly Cloudy 87 30.6 72 22.2 61 61 SSW 10 17 29.95 1014 10 16 0.00 0.00
12:53 pm 12:53 Partly Cloudy 87 30.6 72 22.2 61 61 SW 9 15 29.94 1014 10 16 0.00 0.00
1:53 pm 13:53 Sunny 89 31.7 71 21.7 55 55 SSW 13 20 29.92 1013 10 16 0.00 0.00
2:53 pm 14:53 Mostly Cloudy 88 31.1 71 21.7 57 57 S 12 19 29.91 1013 10 16 0.00 0.00
3:53 pm 15:53 Mostly Cloudy 90 32.2 72 22.2 56 56 SSW 10 17 29.90 1012 10 16 0.00 0.00
4:53 pm 16:53 Cloudy 90 32.2 73 22.8 58 58 S 9 15 29.88 1012 10 16 0.00 0.00
5:53 pm 17:53 Mostly Cloudy 88 31.1 72 22.2 59 59 SSW 10 17 29.87 1012 10 16 0.00 0.00
6:53 pm 18:53 Mostly Cloudy 88 31.1 73 22.8 61 61 SSW 8 13 29.85 1011 10 16 0.00 0.00
7:53 pm 19:53 Sunny 87 30.6 72 22.2 61 61 S 7 11 29.84 1010 10 16 0.00 0.00
8:53 pm 20:53 Clear 85 29.4 73 22.8 68 68 S 6 9 29.85 1011 10 16 0.00 0.00
9:53 pm 21:53 Clear 82 27.8 73 22.8 74 74 SSE 5 7 29.88 1012 10 16 0.00 0.00
10:53 pm 22:53 Mostly Clear 80 26.7 74 23.3 82 82 Calm 29.90 1013 10 16 0.00 0.00
11:53 pm 23:53 Clear 79 26.1 74 23.3 85 85 Calm 29.89 1012 10 16 0.00 0.00

Powered by AerisWeather